Regional Weather Roundup
Issued by NWS Grand Forks, ND

Home | Current Version | Previous Version | Text Only | Print | Product List | Glossary Off
Versions: 1 2 3 4 5 6 7 8 9 10 11 12 13 14 15 16 17 18 19 20 21 22 23 24 25 26 27 28 29 30 31 32 33 34 35 36 37 38 39 40 41 42 43 44 45 46 47 48 49 50

000
ASUS43 KFGF 020731
RWRFGF
PRAIRIE TO PINES  WEATHER ROUNDUP
NATIONAL WEATHER SERVICE EASTERN NORTH DAKOTA/GRAND FORKS ND
100 AM CST MON MAR 02 2015

 **SATELLITE DATA USED TO AUGMENT SKY COVER AT AUTOMATED STATIONS**
 *****  WEATHER ACROSS EASTERN NORTH DAKOTA  *****

CITY           SKY/WX    TMP DP  RH WIND       PRES   REMARKS
GRAND FORKS    CLEAR      3  -1  83 W5        30.37S WCI  -6
GRAND FRKS AFB CLEAR      8   2  75 W7        30.36F WCI  -3
GRAND FRKS NWS   N/A      1 N/A N/A W3          N/A
DEVILS LAKE    CLEAR      1  -6  71 CALM      30.31F
FARGO          CLEAR      4  -2  76 SW9       30.40S WCI -10
WAHPETON ARPT  SUNNY      7   1  78 W5        30.42S WCI  -2
$$

 ***** WEATHER ACROSS CENTRAL AND WESTERN NORTH DAKOTA  *****

CITY           SKY/WX    TMP DP  RH WIND       PRES   REMARKS
BISMARCK       PTCLDY     4   1  88 CALM      30.35F
MINOT          PTCLDY     7   1  76 SW12      30.26F WCI  -8
JAMESTOWN      PTCLDY     5   1  83 SW6       30.34F WCI  -6
MINOT AFB      PTCLDY     0  -3  86 SW8       30.26F WCI -14
GARRISON         N/A      4   0  83 CALM      30.28F
WILLISTON      PTCLDY    13   8  81 S6        30.21F WCI   4
DICKINSON      CLEAR      8   3  80 S10       30.21F WCI  -6
HETTINGER      CLEAR      9   4  80 SE6       30.25F WCI  -1
$$

 *****  OTHER AIRPORT OBSERVATIONS IN OUR AREA  *****

CITY           SKY/WX    TMP DP  RH WIND       PRES   REMARKS
WALHALLA         N/A      7   7 100 W7        30.33F WCI  -5
GRAFTON AIRPOR NOT AVBL
VALLEY CITY AR FAIR       7   3  85 W13       30.35S WCI  -9
CANDO          FAIR      -2  -6  84 SW7       30.30S WCI -16
CAVALIER APRT  FAIR       7   1  78 W9        30.34F WCI  -7
GWINNER        SUNNY      9   3  78 SW10      30.40F WCI  -6
SHEYENNE NWR     N/A     -2  -7  78 SW7       29.95S WCI -15
ROLLA          FAIR       3   1  92 W6        30.26F WCI  -8
 ***** THE ABOVE OBSERVATIONS ARE NON NWS ARE NOT QUALITY
       CONTROLLED AND MAY MIS-REPORT RAIN FOR SNOW...
$$

  *****  WEATHER ACROSS NORTHERN MINNESOTA  *****

CITY           SKY/WX    TMP DP  RH WIND       PRES   REMARKS
FLAG ISLAND    CLEAR      5   0  78 NW10      30.27R WCI -10
WARROAD        CLEAR      3   1  92 W6        30.31R WCI  -8
ROSEAU         PTCLDY     9   1  72 W7        30.32R WCI  -3
HALLOCK        PTCLDY     1  -2  85 SW5       30.34S WCI  -8
THF RVR FALLS  CLEAR      3   1  92 W8        30.34S WCI -10
BAUDETTE       CLEAR      5   0  79 W6        30.27R WCI  -6
WASKISH        CLEAR      7   3  85 SW9       30.30R WCI  -7
CROOKSTON      FAIR       3   0  85 NW6       30.37F WCI  -8
STEPHEN NDAWN    N/A      5   1  85 W8          N/A  WCI  -8
GREENBUSH NDAW   N/A      1  -2  85 VRB6        N/A  WCI -10
$$
  *****  WEATHER ACROSS CENTRAL AND WEST MINNESOTA  *****

CITY           SKY/WX    TMP DP  RH WIND       PRES   REMARKS
FOSSTON        PTCLDY     3   0  85 SW3       30.35R
BEMIDJI        PTCLDY     6   2  86 SW7       30.31S WCI  -6
PARK RAPIDS    CLEAR      2  -3  80 NW3       30.33S
ELBOW LAKE     FAIR       6   2  86 CALM      30.41R
WADENA         CLEAR      3   1  92 W6        30.37S WCI  -8
DETROIT LAKES  PTCLDY     5   3  92 SW3       30.36F
MOORHEAD       FAIR       5   3  92 CALM      30.40F
FERGUS FALLS   CLEAR      3   0  85 S3        30.44S
MORRIS MN      CLEAR      7   1  78 NW8       30.41S WCI  -6
STAPLES        CLEAR      0  -2  92 W7        30.37S WCI -13
$$
  *****  WEATHER ELSEWHERE ACROSS MINNESOTA  *****

CITY           SKY/WX    TMP DP  RH WIND       PRES   REMARKS
DULUTH         FAIR      10   3  73 W10       30.29R WCI  -4
INTRNTL FALLS  PTCLDY     7   2  80 W7        30.26R WCI  -5
ELY            MOCLDY     9   3  78 W9        30.24R WCI  -5
CLOQUET        CLEAR      9   3  78 W6        30.32R WCI  -1
WHEATON        NOT AVBL
BRAINERD       CLEAR      8   5  87 W7        30.37R WCI  -3
HIBBING        CLEAR      9   3  77 W8        30.28R WCI  -3
ALEXANDRIA     CLEAR      7   4  87 W7        30.39S WCI  -5
SAINT CLOUD    CLEAR     12   6  77 W6        30.41R WCI   3
MINNEAPOLIS    CLEAR     18   8  65 NW10      30.42R WCI   6
$$

  *****  WEATHER ACROSS SOUTH DAKOTA  *****

CITY           SKY/WX    TMP DP  RH WIND       PRES   REMARKS
SIOUX FALLS    CLEAR     13   9  84 CALM      30.44S
BROOKINGS      NOT AVBL
WATERTOWN      MOCLDY     6   2  83 CALM      30.40S
HURON          PTCLDY     5   2  87 CALM      30.44F
SISSETON         N/A      8   2  76 N5        30.41F WCI   0
ABERDEEN       PTCLDY     1  -4  79 SW7       30.43F WCI -12
MITCHELL       CLEAR     14  10  84 CALM      30.46S
PIERRE         PTCLDY    10   8  92 CALM      30.38F
MOBRIDGE       PTCLDY    10   6  84 SE7       30.34F WCI  -1
RAPID CITY     PTCLDY     9   4  80 S5        30.25F WCI   1
$$

  *****  SOME WEATHER IN NEARBY STATES *****

CITY           SKY/WX    TMP DP  RH WIND       PRES   REMARKS
GLASGOW MT     CLEAR     16   8  71 SE13      30.07F WCI   2
GREAT FALLS MT CLOUDY    30  10  43 SW20      29.84F WCI  17
CHEYENNE WY    MOCLDY    19  14  81 S12       30.10F WCI   7
SCOTTSBLUFF NE MOCLDY    26  16  65 SE7       30.22F WCI  18
OMAHA NE       CLOUDY    22  17  81 CALM      30.49R
DES MOINES IA  PTCLDY    22  13  68 NW3       30.49R
DAVENPORT IA   PTCLDY     9   4  80 W6        30.44R WCI  -1
CHICAGO IL     CLEAR     18   8  65 W12       30.38R WCI   5
EAU CLAIRE WI  CLEAR     17   8  67 W10       30.36R WCI   5
LA CROSSE WI   CLOUDY    12   6  77 CALM      30.40R
$$

  *****  SOME NATIONAL WEATHER *****

CITY           SKY/WX    TMP DP  RH WIND       PRES   REMARKS
LA GUARDIA NY  CLOUDY    30  25  80 CALM      30.09F
RALEIGH NC     FOG       35  33  92 SW7       30.24F VSB 1/4
ATLANTA GA     CLOUDY    46  43  89 CALM      30.34R FOG
NEW ORLEANS LA LGT RAIN  61  59  93 SE9       30.28F
OKLAHOMA CITY  CLOUDY    31  23  72 NE6       30.44F
ALBUQUERQUE NM CLOUDY    49  28  44 CALM      30.10S
SALT LAKE CITY CLOUDY    40  32  73 CALM      29.95F
LOS ANGELES CA RAIN      51  48  89 NW8       29.95S
BOISE ID       CLEAR     32  21  64 SE7       29.97F
SEATTLE WA     CLOUDY    44  35  70 N10       29.98S
$$

*** WEATHER ACROSS MANITOBA...SASKATCHEWAN AND ONTARIO ***
                ***ONTARIO***

CITY           SKY/WX    TMP DP  RH WIND       PRES   REMARKS
GERALDTON      PTCLDY     9   0  66 W10       30.00R WCI  -6
THUNDER BAY    CLEAR     14   3  62 W12G20    30.18R WCI   0
SIOUX LOOKOUT  CLEAR      3  -8  60 NW8       30.17R WCI -10
TORONTO        CLOUDY    19  14  79 SW8       30.13S WCI   9
BIG TROUT LK   CLEAR    -15 -18  84 W8        30.04S WCI -32
PICKLE LAKE    NOT AVBL
DRYDEN         CLEAR      3   1  92 W10       30.20R WCI -12
KENORA         CLEAR      7   1  78 NW6       30.22R WCI  -3
$$
                *** MANITOBA***

CITY           SKY/WX    TMP DP  RH WIND       PRES   REMARKS
BRANDON        CLEAR     -8 -13  77 NW7       30.27F WCI -22
DAUPHIN        CLEAR      5   0  78 SW10      30.24F WCI -10
ISLAND LAKE    CLEAR     -9 -17  70 S3        30.12F
PILOT MOUND      N/A     -2  -4  92 SW3         N/A
THE PAS        CLEAR      1  -8  66 S9        30.09F WCI -14
THOMPSON       PTCLDY   -18 -26  69 CALM      30.03F
WINNIPEG       CLEAR      5   0  78 W9        30.32R WCI  -9
LYNN LAKE      PTCLDY     1  -8  66 S5        29.87F WCI  -8
CHURCHILL      CLEAR    -18 -27  63 W10       29.97S WCI -39
GILLAM         CLEAR    -15 -22  70 SW6       30.03S WCI -29
$$
                ***SASKATCHEWAN***

CITY           SKY/WX    TMP DP  RH WIND       PRES   REMARKS
ESTEVAN        CLEAR     -4  -8  84 S9        30.19F WCI -20
KINDERSLEY     MOCLDY    14   9  79 S17       29.84F WCI  -3
LLOYDMINSTER   CLEAR     10   7  85 S13       29.80F WCI  -5
PRINCE ALBERT  CLEAR      1  -2  85 CALM      30.00F
REGINA         CLEAR      0  -4  85 SE15      30.11F WCI -20
YORKTON        CLEAR      1   0  92 S12       30.16F WCI -15
N. BATTLEFORD  CLEAR     12   7  79 SE12      29.90F WCI  -2
LA RONGE       PTCLDY    12   7  79 S10       29.89F WCI  -1
SASKATOON      CLEAR      9   3  78 S15G22    30.00F WCI  -8
SWIFT CURRENT  CLEAR     16   9  73 S22G29    29.91F WCI  -2
$$
NOTE: THESE ARE AUTOMATED STATIONS WITH LIMITED QUALITY CONTROL
      "FAIR" INDICATES FEW OR NO CLOUDS BELOW 12,000 FEET WITH NO
      SIGNIFICANT WEATHER AND/OR OBSTRUCTIONS TO VISIBILITY.
      SKY/WX - SKY CONDITION AND SIGNIFICANT WEATHER.
      TMP - AIR TEMPERATURE.    DP   - DEWPOINT TEMPERATURE.
      RH  - RELATIVE HUMIDITY.  PRES - PRESSURE.
      HX  - HEAT INDEX.         WCI  - WIND CHILL INDEX.
$


USA.gov is the U.S. government's official web portal to all federal, state and local government web resources and services.